Location: Unspecified
(0.0000°N, 0.0000°E)
Time: 01:37:39
(UTC+00:00)

Vanguard 2 Rocket - Pass Details

Date: 14 October 2022
Orbit: 553 x 3312 km, 32.9° (Epoch: 28 November)

Event Time Altitude Azimuth Distance (km) Brightness Sun altitude
Rises 13:23:49 0° 214° (SW) 4,517 10.8 64.3°
Reaches altitude 10° 13:26:44 10° 205° (SSW) 3,871 10.5 63.6°
Maximum altitude 13:36:38 37° 141° (SE) 3,212 10.0 61.2°
Drops below altitude 10° 13:51:54 10° 80° (E) 5,953 10.8 57.6°
Sets 13:57:41 0° 73° (ENE) 7,190 11.1 56.2°
